Year,Month,Day,Hour,Minute,Value (Times are PST for temperature in C)
2019,07,08,00,00,12.40
2019,07,08,00,01,12.40
2019,07,08,00,02,12.40
2019,07,08,00,03,12.40
2019,07,08,00,04,12.50
2019,07,08,00,05,12.50
2019,07,08,00,06,12.50
2019,07,08,00,07,12.50
2019,07,08,00,08,12.50
2019,07,08,00,09,12.50
2019,07,08,00,10,12.50
2019,07,08,00,11,12.60
2019,07,08,00,12,12.60
2019,07,08,00,13,12.60
2019,07,08,00,14,12.60
2019,07,08,00,15,12.60
2019,07,08,00,16,12.60
2019,07,08,00,17,12.60
2019,07,08,00,18,12.50
2019,07,08,00,19,12.50
2019,07,08,00,20,12.40
2019,07,08,00,21,12.40
2019,07,08,00,22,12.30
2019,07,08,00,23,12.30
2019,07,08,00,24,12.30
2019,07,08,00,25,12.30
2019,07,08,00,26,12.30
2019,07,08,00,27,12.30
2019,07,08,00,28,12.30
2019,07,08,00,29,12.30
2019,07,08,00,30,12.30
2019,07,08,00,32,12.20
2019,07,08,00,33,12.20
2019,07,08,00,34,12.20
2019,07,08,00,35,12.20
2019,07,08,00,36,12.20
2019,07,08,00,37,12.20
2019,07,08,00,38,12.20
2019,07,08,00,39,12.20
2019,07,08,00,40,12.20
2019,07,08,00,41,12.20
2019,07,08,00,42,12.20
2019,07,08,00,43,12.20
2019,07,08,00,44,12.10
2019,07,08,00,45,12.10
2019,07,08,00,46,12.10
2019,07,08,00,47,12.10
2019,07,08,00,48,12.10
2019,07,08,00,49,12.10
2019,07,08,00,50,12.00
2019,07,08,00,51,12.00
2019,07,08,00,52,12.00
2019,07,08,00,53,12.00
2019,07,08,00,54,12.00
2019,07,08,00,55,12.00
2019,07,08,00,56,12.00
2019,07,08,00,57,11.90
2019,07,08,00,58,11.90
2019,07,08,00,59,11.90
2019,07,08,01,00,11.90
2019,07,08,01,01,11.90
2019,07,08,01,02,11.90
2019,07,08,01,03,11.90
2019,07,08,01,04,11.90
2019,07,08,01,05,11.80
2019,07,08,01,06,11.80
2019,07,08,01,07,11.80
2019,07,08,01,08,11.80
2019,07,08,01,09,11.80
2019,07,08,01,10,11.80
2019,07,08,01,11,11.80
2019,07,08,01,12,11.80
2019,07,08,01,13,11.80
2019,07,08,01,14,11.80
2019,07,08,01,15,11.70
2019,07,08,01,16,11.70
2019,07,08,01,17,11.60
2019,07,08,01,18,11.60
2019,07,08,01,19,11.60
2019,07,08,01,20,11.60
2019,07,08,01,21,11.60
2019,07,08,01,22,11.60
2019,07,08,01,23,11.60
2019,07,08,01,24,11.40
2019,07,08,01,25,11.40
2019,07,08,01,27,11.40
2019,07,08,01,29,11.40
2019,07,08,01,31,11.40
2019,07,08,01,32,11.40
2019,07,08,01,33,11.40
2019,07,08,01,34,11.40
2019,07,08,01,36,11.40
2019,07,08,01,37,11.40
2019,07,08,01,38,11.40
2019,07,08,01,39,11.40
2019,07,08,01,41,11.40
2019,07,08,01,42,11.40
2019,07,08,01,43,11.40
2019,07,08,01,44,11.40
2019,07,08,01,46,11.40
2019,07,08,01,47,11.40
2019,07,08,01,48,11.40
2019,07,08,01,49,11.40
2019,07,08,01,51,11.40
2019,07,08,01,52,11.40
2019,07,08,01,53,11.30
2019,07,08,01,54,11.30
2019,07,08,01,56,11.30
2019,07,08,01,57,11.30
2019,07,08,01,58,11.30
2019,07,08,01,59,11.20
2019,07,08,02,01,11.20
2019,07,08,02,02,11.20
2019,07,08,02,03,11.20
2019,07,08,02,04,11.20
2019,07,08,02,06,11.20
2019,07,08,02,07,11.20
2019,07,08,02,08,11.20
2019,07,08,02,09,11.20
2019,07,08,02,11,11.20
2019,07,08,02,12,11.20
2019,07,08,02,13,11.20
2019,07,08,02,14,11.20
2019,07,08,02,16,11.20
2019,07,08,02,17,11.20
2019,07,08,02,18,11.20
2019,07,08,02,19,11.20
2019,07,08,02,21,11.20
2019,07,08,02,22,11.20
2019,07,08,02,23,11.10
2019,07,08,02,24,11.10
2019,07,08,02,26,11.10
2019,07,08,02,27,11.10
2019,07,08,02,28,11.10
2019,07,08,02,29,11.10
2019,07,08,02,31,11.10
2019,07,08,02,32,11.10
2019,07,08,02,33,11.10
2019,07,08,02,34,10.90
2019,07,08,02,36,10.90
2019,07,08,02,37,10.90
2019,07,08,02,38,10.90
2019,07,08,02,39,10.90
2019,07,08,02,40,10.90
2019,07,08,02,41,10.90
2019,07,08,02,42,10.90
2019,07,08,02,43,10.90
2019,07,08,02,44,10.90
2019,07,08,02,45,10.90
2019,07,08,02,46,10.90
2019,07,08,02,47,10.90
2019,07,08,02,48,10.90
2019,07,08,02,49,10.90
2019,07,08,02,50,10.90
2019,07,08,02,51,10.90
2019,07,08,02,52,10.90
2019,07,08,02,53,10.90
2019,07,08,02,54,10.90
2019,07,08,02,55,10.90
2019,07,08,02,56,10.90
2019,07,08,02,57,10.90
2019,07,08,02,58,10.90
2019,07,08,02,59,10.90
2019,07,08,03,00,10.80
2019,07,08,03,01,10.80
2019,07,08,03,02,10.80
2019,07,08,03,03,10.80
2019,07,08,03,04,10.80
2019,07,08,03,05,10.80
2019,07,08,03,06,10.80
2019,07,08,03,07,10.80
2019,07,08,03,08,10.80
2019,07,08,03,09,10.90
2019,07,08,03,10,10.90
2019,07,08,03,11,10.90
2019,07,08,03,12,10.90
2019,07,08,03,13,10.90
2019,07,08,03,14,10.90
2019,07,08,03,15,10.90
2019,07,08,03,16,10.90
2019,07,08,03,17,10.90
2019,07,08,03,18,10.90
2019,07,08,03,19,10.90
2019,07,08,03,20,10.90
2019,07,08,03,21,10.90
2019,07,08,03,22,10.90
2019,07,08,03,23,10.90
2019,07,08,03,24,10.90
2019,07,08,03,25,10.90
2019,07,08,03,26,10.90
2019,07,08,03,27,10.90
2019,07,08,03,28,10.90
2019,07,08,03,29,10.90
2019,07,08,03,30,10.90
2019,07,08,03,31,10.90
2019,07,08,03,32,10.90
2019,07,08,03,33,10.90
2019,07,08,03,34,10.90
2019,07,08,03,35,10.90
2019,07,08,03,36,10.90
2019,07,08,03,37,10.90
2019,07,08,03,38,10.90
2019,07,08,03,39,10.90
2019,07,08,03,40,10.90
2019,07,08,03,41,10.90
2019,07,08,03,42,10.90
2019,07,08,03,43,10.90
2019,07,08,03,44,10.90
2019,07,08,03,45,10.90
2019,07,08,03,46,10.90
2019,07,08,03,47,10.90
2019,07,08,03,48,10.90
2019,07,08,03,49,10.90
2019,07,08,03,50,10.90
2019,07,08,03,51,10.90
2019,07,08,03,52,10.90
2019,07,08,03,53,10.90
2019,07,08,03,54,10.90
2019,07,08,03,55,11.10
2019,07,08,03,56,11.10
2019,07,08,03,57,11.10
2019,07,08,03,58,11.10
2019,07,08,03,59,11.10
2019,07,08,04,00,11.10
2019,07,08,04,01,11.10
2019,07,08,04,02,11.10
2019,07,08,04,03,11.20
2019,07,08,04,04,11.20
2019,07,08,04,05,11.20
2019,07,08,04,06,11.30
2019,07,08,04,07,11.30
2019,07,08,04,08,11.40
2019,07,08,04,09,11.40
2019,07,08,04,10,11.40
2019,07,08,04,11,11.40
2019,07,08,04,12,11.40
2019,07,08,04,13,11.40
2019,07,08,04,14,11.60
2019,07,08,04,15,11.60
2019,07,08,04,16,11.60
2019,07,08,04,17,11.60
2019,07,08,04,18,11.60
2019,07,08,04,19,11.60
2019,07,08,04,20,11.60
2019,07,08,04,21,11.60
2019,07,08,04,22,11.70
2019,07,08,04,23,11.70
2019,07,08,04,24,11.70
2019,07,08,04,25,11.70
2019,07,08,04,26,11.70
2019,07,08,04,27,11.70
2019,07,08,04,28,11.80
2019,07,08,04,29,11.80
2019,07,08,04,30,11.80
2019,07,08,04,31,11.80
2019,07,08,04,32,11.80
2019,07,08,04,33,11.80
2019,07,08,04,34,11.80
2019,07,08,04,35,11.80
2019,07,08,04,36,11.80
2019,07,08,04,37,11.80
2019,07,08,04,38,11.80
2019,07,08,04,39,11.80
2019,07,08,04,40,11.80
2019,07,08,04,41,11.80
2019,07,08,04,42,11.80
2019,07,08,04,43,11.80
2019,07,08,04,44,11.70
2019,07,08,04,45,11.70
2019,07,08,04,46,11.70
2019,07,08,04,47,11.70
2019,07,08,04,48,11.70
2019,07,08,04,49,11.70
2019,07,08,04,50,11.70
2019,07,08,04,51,11.70
2019,07,08,04,52,11.70
2019,07,08,04,53,11.70
2019,07,08,04,54,11.60
2019,07,08,04,55,11.60
2019,07,08,04,56,11.60
2019,07,08,04,57,11.60
2019,07,08,04,58,11.60
2019,07,08,04,59,11.60
2019,07,08,05,00,11.60
2019,07,08,05,01,11.60
2019,07,08,05,02,11.60
2019,07,08,05,03,11.60
2019,07,08,05,04,11.60
2019,07,08,05,05,11.60
2019,07,08,05,06,11.60
2019,07,08,05,07,11.60
2019,07,08,05,08,11.60
2019,07,08,05,09,11.60
2019,07,08,05,10,11.60
2019,07,08,05,11,11.60
2019,07,08,05,12,11.60
2019,07,08,05,13,11.60
2019,07,08,05,14,11.60
2019,07,08,05,15,11.60
2019,07,08,05,16,11.60
2019,07,08,05,17,11.60
2019,07,08,05,18,11.60
2019,07,08,05,19,11.60
2019,07,08,05,20,11.60
2019,07,08,05,21,11.60
2019,07,08,05,22,11.60
2019,07,08,05,23,11.60
2019,07,08,05,24,11.60
2019,07,08,05,25,11.60
2019,07,08,05,26,11.60
2019,07,08,05,27,11.60
2019,07,08,05,28,11.60
2019,07,08,05,29,11.60
2019,07,08,05,30,11.60
2019,07,08,05,31,11.60
2019,07,08,05,32,11.60
2019,07,08,05,33,11.60
2019,07,08,05,34,11.60
2019,07,08,05,35,11.60
2019,07,08,05,36,11.60
2019,07,08,05,37,11.60
2019,07,08,05,38,11.60
2019,07,08,05,39,11.60
2019,07,08,05,40,11.60
2019,07,08,05,41,11.60
2019,07,08,05,42,11.60
2019,07,08,05,43,11.60
2019,07,08,05,44,11.60
2019,07,08,05,45,11.60
2019,07,08,05,46,11.60
2019,07,08,05,47,11.60
2019,07,08,05,48,11.60
2019,07,08,05,49,11.60
2019,07,08,05,50,11.60
2019,07,08,05,51,11.60
2019,07,08,05,52,11.60
2019,07,08,05,53,11.60
2019,07,08,05,54,11.60
2019,07,08,05,55,11.60
2019,07,08,05,56,11.60
2019,07,08,05,58,11.60
2019,07,08,05,59,11.60
2019,07,08,06,00,11.60
2019,07,08,06,01,11.60
2019,07,08,06,03,11.60
2019,07,08,06,04,11.60
2019,07,08,06,06,11.60
2019,07,08,06,07,11.60
2019,07,08,06,08,11.60
2019,07,08,06,09,11.60
2019,07,08,06,11,11.60
2019,07,08,06,12,11.60
2019,07,08,06,13,11.60
2019,07,08,06,14,11.60
2019,07,08,06,16,11.60
2019,07,08,06,17,11.60
2019,07,08,06,18,11.60
2019,07,08,06,19,11.60
2019,07,08,06,21,11.60
2019,07,08,06,22,11.70
2019,07,08,06,23,11.70
2019,07,08,06,24,11.70
2019,07,08,06,26,11.70
2019,07,08,06,27,11.70
2019,07,08,06,28,11.70
2019,07,08,06,29,11.70
2019,07,08,06,30,11.70
2019,07,08,06,32,11.60
2019,07,08,06,33,11.70
2019,07,08,06,34,11.70
2019,07,08,06,36,11.70
2019,07,08,06,37,11.70
2019,07,08,06,38,11.70
2019,07,08,06,39,11.60
2019,07,08,06,41,11.60
2019,07,08,06,42,11.60
2019,07,08,06,43,11.60
2019,07,08,06,44,11.60
2019,07,08,06,46,11.60
2019,07,08,06,47,11.60
2019,07,08,06,48,11.60
2019,07,08,06,49,11.60
2019,07,08,06,51,11.60
2019,07,08,06,52,11.60
2019,07,08,06,53,11.60
2019,07,08,06,54,11.60
2019,07,08,06,56,11.60
2019,07,08,06,57,11.70
2019,07,08,06,58,11.70
2019,07,08,06,59,11.70
2019,07,08,07,01,11.70
2019,07,08,07,02,11.80
2019,07,08,07,03,11.80
2019,07,08,07,04,11.80
2019,07,08,07,06,11.80
2019,07,08,07,07,11.80
2019,07,08,07,08,11.80
2019,07,08,07,09,11.90
2019,07,08,07,11,11.90
2019,07,08,07,12,11.90
2019,07,08,07,13,11.90
2019,07,08,07,14,11.90
2019,07,08,07,16,11.90
2019,07,08,07,17,11.90
2019,07,08,07,18,11.90
2019,07,08,07,19,12.00
2019,07,08,07,21,12.00
2019,07,08,07,22,12.00
2019,07,08,07,23,12.00
2019,07,08,07,24,11.90
2019,07,08,07,26,11.90
2019,07,08,07,27,11.90
2019,07,08,07,28,11.90
2019,07,08,07,29,11.90
2019,07,08,07,31,11.90
2019,07,08,07,32,11.90
2019,07,08,07,33,11.90
2019,07,08,07,34,11.90
2019,07,08,07,36,11.90
2019,07,08,07,37,11.90
2019,07,08,07,38,11.90
2019,07,08,07,39,11.90
2019,07,08,07,40,11.90
2019,07,08,07,41,11.90
2019,07,08,07,42,11.90
2019,07,08,07,43,11.90
2019,07,08,07,44,11.90
2019,07,08,07,45,11.90
2019,07,08,07,46,11.90
2019,07,08,07,47,11.90
2019,07,08,07,48,11.90
2019,07,08,07,49,11.90
2019,07,08,07,50,11.90
2019,07,08,07,51,11.90
2019,07,08,07,52,11.90
2019,07,08,07,53,11.90
2019,07,08,07,54,11.90
2019,07,08,07,55,11.90
2019,07,08,07,56,11.90
2019,07,08,07,57,11.90
2019,07,08,07,58,11.90
2019,07,08,07,59,11.90
2019,07,08,08,00,11.90
2019,07,08,08,01,11.90
2019,07,08,08,02,11.90
2019,07,08,08,03,12.00
2019,07,08,08,04,12.00
2019,07,08,08,05,12.00
2019,07,08,08,06,12.00
2019,07,08,08,07,12.00
2019,07,08,08,08,12.10
2019,07,08,08,09,12.10
2019,07,08,08,10,12.20
2019,07,08,08,11,12.20
2019,07,08,08,12,12.20
2019,07,08,08,13,12.20
2019,07,08,08,14,12.30
2019,07,08,08,15,12.30
2019,07,08,08,16,12.30
2019,07,08,08,17,12.30
2019,07,08,08,18,12.30
2019,07,08,08,19,12.30
2019,07,08,08,20,12.30
2019,07,08,08,21,12.30
2019,07,08,08,22,12.20
2019,07,08,08,23,12.20
2019,07,08,08,24,12.30
2019,07,08,08,25,12.30
2019,07,08,08,26,12.30
2019,07,08,08,27,12.30
2019,07,08,08,28,12.30
2019,07,08,08,29,12.40
2019,07,08,08,30,12.50
2019,07,08,08,31,12.50
2019,07,08,08,32,12.60
2019,07,08,08,33,12.70
2019,07,08,08,34,12.80
2019,07,08,08,35,12.80
2019,07,08,08,36,12.80
2019,07,08,08,37,12.90
2019,07,08,08,38,12.90
2019,07,08,08,39,12.90
2019,07,08,08,40,12.90
2019,07,08,08,41,12.90
2019,07,08,08,42,13.00
2019,07,08,08,43,13.00
2019,07,08,08,44,13.10
2019,07,08,08,45,13.20
2019,07,08,08,46,13.20
2019,07,08,08,47,13.30
2019,07,08,08,48,13.30
2019,07,08,08,49,13.40
2019,07,08,08,50,13.50
2019,07,08,08,51,13.60
2019,07,08,08,52,13.70
2019,07,08,08,53,13.70
2019,07,08,08,54,13.70
2019,07,08,08,55,13.80
2019,07,08,08,56,13.80
2019,07,08,08,57,13.80
2019,07,08,08,58,13.90
2019,07,08,08,59,13.90
2019,07,08,09,00,13.90
2019,07,08,09,01,14.00
2019,07,08,09,02,14.00
2019,07,08,09,03,14.10
2019,07,08,09,04,14.10
2019,07,08,09,05,14.20
2019,07,08,09,06,14.20
2019,07,08,09,07,14.20
2019,07,08,09,08,14.20
2019,07,08,09,09,14.20
2019,07,08,09,10,14.20
2019,07,08,09,11,14.30
2019,07,08,09,12,14.30
2019,07,08,09,13,14.20
2019,07,08,09,14,14.30
2019,07,08,09,15,14.30
2019,07,08,09,16,14.40
2019,07,08,09,17,14.50
2019,07,08,09,18,14.50
2019,07,08,09,19,14.60
2019,07,08,09,20,14.70
2019,07,08,09,21,14.70
2019,07,08,09,22,14.70
2019,07,08,09,23,14.70
2019,07,08,09,24,14.70
2019,07,08,09,25,14.80
2019,07,08,09,26,14.80
2019,07,08,09,27,14.80
2019,07,08,09,28,14.90
2019,07,08,09,29,14.90
2019,07,08,09,30,15.00
2019,07,08,09,31,15.00
2019,07,08,09,32,15.10
2019,07,08,09,33,15.20
2019,07,08,09,34,15.30
2019,07,08,09,35,15.30
2019,07,08,09,36,15.40
2019,07,08,09,37,15.50
2019,07,08,09,38,15.60
2019,07,08,09,39,15.60
2019,07,08,09,40,15.70
2019,07,08,09,41,15.80
2019,07,08,09,42,15.80
2019,07,08,09,43,15.80
2019,07,08,09,44,15.90
2019,07,08,09,45,15.90
2019,07,08,09,46,16.10
2019,07,08,09,47,16.10
2019,07,08,09,48,16.20
2019,07,08,09,49,16.30
2019,07,08,09,50,16.30
2019,07,08,09,51,16.30
2019,07,08,09,52,16.30
2019,07,08,09,53,16.30
2019,07,08,09,54,16.30
2019,07,08,09,55,16.30
2019,07,08,09,56,16.20
2019,07,08,09,57,16.10
2019,07,08,09,58,16.10
2019,07,08,09,59,15.90
2019,07,08,10,00,15.90
2019,07,08,10,01,15.90
2019,07,08,10,02,15.90
2019,07,08,10,03,15.80
2019,07,08,10,04,15.80
2019,07,08,10,05,15.80
2019,07,08,10,06,15.80
2019,07,08,10,07,15.80
2019,07,08,10,08,15.80
2019,07,08,10,09,15.80
2019,07,08,10,10,15.80
2019,07,08,10,11,15.80
2019,07,08,10,12,15.80
2019,07,08,10,13,15.80
2019,07,08,10,14,15.80
2019,07,08,10,15,15.90
2019,07,08,10,16,16.10
2019,07,08,10,17,16.10
2019,07,08,10,18,16.10
2019,07,08,10,19,16.20
2019,07,08,10,20,16.30
2019,07,08,10,21,16.40
2019,07,08,10,22,16.60
2019,07,08,10,23,16.70
2019,07,08,10,24,16.70
2019,07,08,10,25,16.70
2019,07,08,10,26,16.80
2019,07,08,10,27,16.90
2019,07,08,10,28,16.90
2019,07,08,10,29,17.00
2019,07,08,10,30,17.10
2019,07,08,10,31,17.20
2019,07,08,10,32,17.30
2019,07,08,10,33,17.30
2019,07,08,10,34,17.30
2019,07,08,10,35,17.30
2019,07,08,10,36,17.40
2019,07,08,10,37,17.40
2019,07,08,10,38,17.30
2019,07,08,10,39,17.30
2019,07,08,10,40,17.40
2019,07,08,10,41,17.40
2019,07,08,10,42,17.40
2019,07,08,10,43,17.50
2019,07,08,10,44,17.50
2019,07,08,10,45,17.50
2019,07,08,10,46,17.50
2019,07,08,10,47,17.50
2019,07,08,10,48,17.50
2019,07,08,10,49,17.60
2019,07,08,10,50,17.60
2019,07,08,10,51,17.70
2019,07,08,10,52,17.70
2019,07,08,10,53,17.70
2019,07,08,10,54,17.70
2019,07,08,10,55,17.70
2019,07,08,10,56,17.70
2019,07,08,10,57,17.70
2019,07,08,10,58,17.70
2019,07,08,10,59,17.70
2019,07,08,11,00,17.80
2019,07,08,11,01,17.90
2019,07,08,11,02,17.90
2019,07,08,11,03,18.10
2019,07,08,11,04,18.20
2019,07,08,11,05,18.20
2019,07,08,11,06,18.30
2019,07,08,11,07,18.40
2019,07,08,11,08,18.40
2019,07,08,11,09,18.50
2019,07,08,11,10,18.60
2019,07,08,11,11,18.60
2019,07,08,11,12,18.70
2019,07,08,11,13,18.70
2019,07,08,11,14,18.80
2019,07,08,11,15,18.80
2019,07,08,11,17,18.80
2019,07,08,11,18,18.80
2019,07,08,11,19,18.80
2019,07,08,11,21,18.80
2019,07,08,11,22,18.70
2019,07,08,11,23,18.70
2019,07,08,11,24,18.80
2019,07,08,11,26,18.80
2019,07,08,11,27,18.80
2019,07,08,11,28,18.70
2019,07,08,11,29,18.70
2019,07,08,11,31,18.60
2019,07,08,11,32,18.50
2019,07,08,11,33,18.40
2019,07,08,11,34,18.30
2019,07,08,11,36,18.20
2019,07,08,11,37,18.10
2019,07,08,11,38,18.10
2019,07,08,11,39,18.10
2019,07,08,11,41,17.90
2019,07,08,11,42,17.90
2019,07,08,11,43,18.10
2019,07,08,11,44,18.10
2019,07,08,11,46,18.20
2019,07,08,11,47,18.20
2019,07,08,11,48,18.20
2019,07,08,11,49,18.20
2019,07,08,11,51,18.20
2019,07,08,11,52,18.20
2019,07,08,11,53,18.20
2019,07,08,11,54,18.20
2019,07,08,11,56,18.20
2019,07,08,11,57,18.20
2019,07,08,11,58,18.20
2019,07,08,11,59,18.20
2019,07,08,12,01,18.30
2019,07,08,12,02,18.40
2019,07,08,12,03,18.40
2019,07,08,12,04,18.50
2019,07,08,12,06,18.60
2019,07,08,12,07,18.60
2019,07,08,12,08,18.60
2019,07,08,12,09,18.70
2019,07,08,12,11,18.70
2019,07,08,12,12,18.70
2019,07,08,12,13,18.70
2019,07,08,12,14,18.70
2019,07,08,12,16,18.60
2019,07,08,12,17,18.50
2019,07,08,12,18,18.50
2019,07,08,12,19,18.40
2019,07,08,12,21,18.40
2019,07,08,12,22,18.40
2019,07,08,12,23,18.40
2019,07,08,12,24,18.40
2019,07,08,12,26,18.40
2019,07,08,12,27,18.40
2019,07,08,12,28,18.40
2019,07,08,12,29,18.40
2019,07,08,12,30,18.40
2019,07,08,12,32,18.30
2019,07,08,12,33,18.20
2019,07,08,12,34,18.20
2019,07,08,12,36,18.20
2019,07,08,12,37,18.10
2019,07,08,12,38,18.10
2019,07,08,12,39,18.10
2019,07,08,12,41,18.10
2019,07,08,12,42,18.10
2019,07,08,12,43,18.20
2019,07,08,12,44,18.20
2019,07,08,12,46,18.30
2019,07,08,12,47,18.40
2019,07,08,12,48,18.50
2019,07,08,12,49,18.60
2019,07,08,12,51,18.70
2019,07,08,12,52,18.80
2019,07,08,12,53,18.80
2019,07,08,12,54,18.80
2019,07,08,12,56,18.80
2019,07,08,12,57,18.80
2019,07,08,12,58,18.80
2019,07,08,12,59,18.80
2019,07,08,13,01,18.80
2019,07,08,13,02,18.80
2019,07,08,13,03,18.70
2019,07,08,13,04,18.70
2019,07,08,13,06,18.60
2019,07,08,13,07,18.60
2019,07,08,13,08,18.60
2019,07,08,13,09,18.60
2019,07,08,13,10,18.50
2019,07,08,13,11,18.50
2019,07,08,13,12,18.50
2019,07,08,13,13,18.50
2019,07,08,13,14,18.40
2019,07,08,13,15,18.40
2019,07,08,13,16,18.40
2019,07,08,13,17,18.30
2019,07,08,13,18,18.30
2019,07,08,13,19,18.30
2019,07,08,13,20,18.40
2019,07,08,13,21,18.50
2019,07,08,13,22,18.50
2019,07,08,13,23,18.60
2019,07,08,13,24,18.60
2019,07,08,13,25,18.60
2019,07,08,13,26,18.70
2019,07,08,13,27,18.70
2019,07,08,13,28,18.70
2019,07,08,13,29,18.70
2019,07,08,13,30,18.80
2019,07,08,13,31,18.90
2019,07,08,13,32,18.90
2019,07,08,13,33,18.90
2019,07,08,13,34,19.10
2019,07,08,13,35,19.10
2019,07,08,13,36,19.10
2019,07,08,13,37,19.20
2019,07,08,13,38,19.20
2019,07,08,13,39,19.30
2019,07,08,13,40,19.40
2019,07,08,13,41,19.50
2019,07,08,13,42,19.60
2019,07,08,13,43,19.70
2019,07,08,13,44,19.70
2019,07,08,13,45,19.80
2019,07,08,13,46,19.90
2019,07,08,13,47,19.90
2019,07,08,13,48,19.90
2019,07,08,13,49,19.90
2019,07,08,13,50,19.90
2019,07,08,13,51,19.90
2019,07,08,13,52,19.90
2019,07,08,13,53,19.90
2019,07,08,13,54,19.90
2019,07,08,13,55,19.90
2019,07,08,13,56,19.80
2019,07,08,13,57,19.80
2019,07,08,13,58,19.80
2019,07,08,13,59,19.90
2019,07,08,14,00,19.90
2019,07,08,14,01,19.90
2019,07,08,14,02,19.90
2019,07,08,14,03,19.90
2019,07,08,14,04,19.90
2019,07,08,14,05,20.10
2019,07,08,14,06,20.10
2019,07,08,14,07,20.10
2019,07,08,14,08,20.10
2019,07,08,14,09,20.10
2019,07,08,14,10,20.10
2019,07,08,14,11,20.20
2019,07,08,14,12,20.20
2019,07,08,14,13,20.20
2019,07,08,14,14,20.20
2019,07,08,14,15,20.30
2019,07,08,14,16,20.40
2019,07,08,14,17,20.50
2019,07,08,14,18,20.50
2019,07,08,14,19,20.60
2019,07,08,14,20,20.60
2019,07,08,14,21,20.70
2019,07,08,14,22,20.70
2019,07,08,14,23,20.70
2019,07,08,14,24,20.80
2019,07,08,14,25,20.80
2019,07,08,14,26,20.80
2019,07,08,14,27,20.80
2019,07,08,14,28,20.80
2019,07,08,14,29,20.80
2019,07,08,14,30,20.80
2019,07,08,14,31,20.80
2019,07,08,14,32,20.80
2019,07,08,14,33,20.80
2019,07,08,14,34,20.80
2019,07,08,14,35,20.90
2019,07,08,14,36,20.80
2019,07,08,14,37,20.80
2019,07,08,14,38,20.80
2019,07,08,14,39,20.90
2019,07,08,14,40,20.90
2019,07,08,14,41,20.90
2019,07,08,14,42,20.90
2019,07,08,14,43,20.80
2019,07,08,14,44,20.80
2019,07,08,14,45,20.70
2019,07,08,14,46,20.70
2019,07,08,14,47,20.60
2019,07,08,14,48,20.50
2019,07,08,14,49,20.50
2019,07,08,14,50,20.40
2019,07,08,14,51,20.40
2019,07,08,14,52,20.40
2019,07,08,14,53,20.40
2019,07,08,14,54,20.40
2019,07,08,14,55,20.40
2019,07,08,14,56,20.40
2019,07,08,14,57,20.30
2019,07,08,14,58,20.20
2019,07,08,14,59,20.20
2019,07,08,15,00,20.20
2019,07,08,15,01,20.20
2019,07,08,15,02,20.10
2019,07,08,15,03,20.10
2019,07,08,15,04,19.90
2019,07,08,15,05,19.90
2019,07,08,15,06,19.90
2019,07,08,15,07,19.90
2019,07,08,15,08,20.10
2019,07,08,15,09,20.10
2019,07,08,15,10,20.20
2019,07,08,15,11,20.20
2019,07,08,15,12,20.30
2019,07,08,15,13,20.40
2019,07,08,15,14,20.40
2019,07,08,15,15,20.50
2019,07,08,15,16,20.60
2019,07,08,15,17,20.70
2019,07,08,15,18,20.80
2019,07,08,15,19,20.90
2019,07,08,15,20,21.00
2019,07,08,15,21,21.00
2019,07,08,15,22,21.00
2019,07,08,15,23,20.90
2019,07,08,15,24,20.90
2019,07,08,15,25,20.80
2019,07,08,15,26,20.70
2019,07,08,15,27,20.50
2019,07,08,15,28,20.50
2019,07,08,15,29,20.50
2019,07,08,15,30,20.50
2019,07,08,15,31,20.50
2019,07,08,15,32,20.50
2019,07,08,15,33,20.40
2019,07,08,15,34,20.30
2019,07,08,15,35,20.30
2019,07,08,15,36,20.20
2019,07,08,15,37,20.20
2019,07,08,15,38,20.20
2019,07,08,15,39,20.20
2019,07,08,15,40,20.20
2019,07,08,15,41,20.20
2019,07,08,15,42,20.20
2019,07,08,15,43,20.20
2019,07,08,15,44,20.20
2019,07,08,15,45,20.20
2019,07,08,15,46,20.20
2019,07,08,15,47,20.20
2019,07,08,15,48,20.20
2019,07,08,15,49,20.20
2019,07,08,15,50,20.20
2019,07,08,15,51,20.20
2019,07,08,15,52,20.20
2019,07,08,15,53,20.20
2019,07,08,15,54,20.20
2019,07,08,15,55,20.20
2019,07,08,15,56,20.20
2019,07,08,15,57,20.20
2019,07,08,15,58,20.20
2019,07,08,15,59,20.20
2019,07,08,16,00,20.20
2019,07,08,16,01,20.20
2019,07,08,16,02,20.20
2019,07,08,16,03,20.10
2019,07,08,16,04,20.10
2019,07,08,16,05,20.10
2019,07,08,16,06,20.10
2019,07,08,16,07,19.90
2019,07,08,16,08,19.90
2019,07,08,16,09,19.90
2019,07,08,16,10,19.80
2019,07,08,16,11,19.90
2019,07,08,16,12,19.90
2019,07,08,16,13,19.90
2019,07,08,16,14,19.90
2019,07,08,16,15,20.10
2019,07,08,16,16,20.10
2019,07,08,16,17,20.10
2019,07,08,16,18,20.10
2019,07,08,16,19,19.90
2019,07,08,16,20,19.90
2019,07,08,16,21,19.90
2019,07,08,16,22,19.90
2019,07,08,16,23,19.90
2019,07,08,16,24,19.90
2019,07,08,16,25,19.80
2019,07,08,16,26,19.80
2019,07,08,16,27,19.90
2019,07,08,16,28,19.90
2019,07,08,16,29,19.90
2019,07,08,16,30,19.90
2019,07,08,16,31,19.90
2019,07,08,16,32,19.90
2019,07,08,16,33,19.90
2019,07,08,16,34,20.10
2019,07,08,16,36,20.20
2019,07,08,16,37,20.30
2019,07,08,16,38,20.40
2019,07,08,16,39,20.50
2019,07,08,16,40,20.60
2019,07,08,16,42,20.70
2019,07,08,16,43,20.80
2019,07,08,16,44,20.90
2019,07,08,16,46,21.00
2019,07,08,16,47,21.00
2019,07,08,16,48,21.00
2019,07,08,16,49,21.00
2019,07,08,16,51,21.00
2019,07,08,16,52,21.00
2019,07,08,16,53,21.00
2019,07,08,16,54,21.00
2019,07,08,16,56,21.10
2019,07,08,16,57,21.10
2019,07,08,16,58,21.10
2019,07,08,16,59,21.10
2019,07,08,17,01,21.00
2019,07,08,17,02,20.90
2019,07,08,17,03,20.80
2019,07,08,17,04,20.60
2019,07,08,17,06,20.30
2019,07,08,17,07,19.90
2019,07,08,17,08,19.80
2019,07,08,17,09,19.50
2019,07,08,17,11,19.10
2019,07,08,17,12,18.90
2019,07,08,17,13,18.90
2019,07,08,17,14,18.80
2019,07,08,17,16,18.70
2019,07,08,17,17,18.70
2019,07,08,17,18,18.70
2019,07,08,17,19,18.80
2019,07,08,17,21,18.80
2019,07,08,17,22,18.90
2019,07,08,17,23,18.90
2019,07,08,17,24,18.90
2019,07,08,17,26,19.10
2019,07,08,17,27,19.10
2019,07,08,17,28,19.10
2019,07,08,17,29,19.10
2019,07,08,17,31,19.10
2019,07,08,17,32,19.10
2019,07,08,17,33,19.10
2019,07,08,17,34,19.10
2019,07,08,17,36,19.10
2019,07,08,17,37,19.20
2019,07,08,17,38,19.20
2019,07,08,17,39,19.30
2019,07,08,17,41,19.30
2019,07,08,17,42,19.30
2019,07,08,17,43,19.30
2019,07,08,17,44,19.30
2019,07,08,17,46,19.40
2019,07,08,17,47,19.40
2019,07,08,17,48,19.40
2019,07,08,17,49,19.40
2019,07,08,17,51,19.50
2019,07,08,17,52,19.50
2019,07,08,17,53,19.50
2019,07,08,17,54,19.50
2019,07,08,17,56,19.50
2019,07,08,17,57,19.50
2019,07,08,17,58,19.50
2019,07,08,17,59,19.50
2019,07,08,18,01,19.60
2019,07,08,18,02,19.70
2019,07,08,18,03,19.80
2019,07,08,18,04,19.80
2019,07,08,18,06,19.90
2019,07,08,18,07,19.90
2019,07,08,18,08,19.90
2019,07,08,18,09,19.90
2019,07,08,18,11,19.90
2019,07,08,18,12,19.90
2019,07,08,18,13,19.90
2019,07,08,18,14,19.90
2019,07,08,18,15,19.90
2019,07,08,18,16,19.90
2019,07,08,18,17,19.90
2019,07,08,18,18,19.80
2019,07,08,18,19,19.70
2019,07,08,18,20,19.60
2019,07,08,18,21,19.60
2019,07,08,18,22,19.50
2019,07,08,18,23,19.40
2019,07,08,18,24,19.40
2019,07,08,18,25,19.30
2019,07,08,18,26,19.30
2019,07,08,18,27,19.30
2019,07,08,18,28,19.30
2019,07,08,18,29,19.30
2019,07,08,18,30,19.30
2019,07,08,18,32,19.40
2019,07,08,18,33,19.40
2019,07,08,18,34,19.50
2019,07,08,18,36,19.70
2019,07,08,18,37,19.80
2019,07,08,18,38,19.80
2019,07,08,18,39,19.90
2019,07,08,18,40,19.90
2019,07,08,18,41,19.90
2019,07,08,18,42,19.90